Location: Marcé
(47.5801°N, 0.3280°W)
Time: 11:17:18
(UTC+01:00)

Vanguard 3 - Pass Details

Date: 02 December 2021
Orbit: 508 x 3260 km, 33.3° (Epoch: 17 January)

Event Time Altitude Azimuth Distance (km) Brightness Sun altitude
Exits shadow 03:32:14 22° 173° (S) 5,238 11.0 -48.8°
Maximum altitude 03:39:19 27° 146° (SE) 4,821 11.0 -47.7°
Drops below altitude 10° 03:52:23 10° 98° (E) 5,516 11.8 -45.7°
Sets 03:57:05 0° 87° (E) 6,182 12.4 -44.9°
